Weather in Soroki

Moldova     48˚09′36″N   28˚17′47″E
temp.,
°C
wind,
m/s
gust,
m/s
humid.,
%
clouds,
%
prec.,
mm/h
press.,
hPa
HPBL,
m
29 november, sun
sun2923:00+2˚wnw1182100 0.0 102023
02:00+1˚wnw1183100 0.0 101922
05:00wnw1189100 0.0 101922
08:00−1˚w119286 0.0 102021
11:00+2˚w127689 0.0 1021497
14:00+3˚sw217186 0.0 1021622
17:00+2˚s1177100 0.0 102130
20:00+1˚n1191100 0.1 102267
30 november, mon
mon3023:00nne129795 0.1 102383
02:00n119389 0.1 1023135
05:00−1˚n129398 0.0 102334
08:00−2˚n229377 0.0 102546
11:00+2˚n346889 0.0 1026468
14:00+3˚n465995 0.0 1026784
17:00+1˚n2468100 0.0 1026135
20:00−1˚nnw3776100 0.0 1027218
1 december, tue
tue123:00−2˚n3682100 0.0 1028204
02:00−2˚n368575 0.0 1028176
05:00−3˚n36870 0.0 1027200
08:00−3˚n36890 0.0 1028188
11:00+1˚nne47660 0.0 1028537
14:00+2˚ne466528 0.0 1027629
17:00−1˚nne378981 0.0 1026228
20:00−1˚nne269788 0.2 1027221
2 december, wed
wed223:00−1˚nne239894 0.3 1027107
02:00nne249596 0.4 1026178
05:00nne2497100 0.1 1026165
08:00nne2499100 0.2 1026176
11:00+1˚ene1296100 0.2 1026142
14:00+1˚ene1197100 0.4 1024124
17:00+1˚ene1298100 0.1 1025128
20:00+1˚ese1298100 0.4 1025106
3 december, thu
thu323:00+1˚ese1297100 0.1 1025149
02:00se129695 0.1 102538
05:00−1˚se119582 0.0 102421
08:00−1˚se119570 0.0 102421
11:00+2˚se238018 0.0 1024389
14:00+3˚sse457245 0.0 1022807
17:00+1˚ese367995 0.0 1022209
20:00+2˚se498296 0.0 1022429